Weather Roundup
Issued by NWS

Home | Current Version | Previous Version | Text Only | Print | Product List | Glossary On
Versions: 1 2 3 4 5 6 7 8 9 10 11 12 13 14 15 16 17 18 19 20 21 22 23 24 25 26 27 28 29 30 31 32 33 34 35 36 37 38 39 40 41 42 43 44 45 46 47 48 49 50
000
NZUS93 KARX 281110
HRRWXR

CURRENT HOURLY OBSERVATIONS ACROSS
MUCH OF THE UPPER MISSISSIPPI VALLEY
NATIONAL WEATHER SERVICE LA CROSSE WI
600 AM CDT THU AUG 28 2014


...SOUTHEAST MINNESOTA...


CITY           SKY/WX    TMP DP  RH WIND       PRES   REMARKS
ROCHESTER      PTCLDY    58  56  93 SE6       30.11S
ROCHESTER/MAYO FAIR      59  57  93 E6        30.10S
WINONA         CLEAR     59  59 100 SE3       30.11S
AUSTIN         MOCLDY    59  57  94 E6        30.08S
ALBERT LEA     MOCLDY    63  59  88 SE6       30.07F
DODGE CENTER   PTCLDY    57  55  94 E6        30.09F
PRESTON        PTCLDY    57  58 100 CALM      30.11S
OWATONNA       MOCLDY    61  57  88 E6        30.08S
FARIBAULT      MOCLDY    63  55  77 E3        30.09R
$$

...ELSEWHERE IN MINNESOTA...


CITY           SKY/WX    TMP DP  RH WIND       PRES   REMARKS
MINNEAPOLIS    PTCLDY    62  56  80 SE9       30.08F
INTNL FALLS    MOCLDY    46  45  96 SE3       30.08F FOG
DULUTH         CLEAR     53  49  86 CALM      30.12S
RED WING       CLEAR     59  55  88 E5        30.09S
REDWOOD FALLS  MOCLDY    62  59  90 SE8       30.04S
MANKATO        MOCLDY    63  54  72 SE10      30.06S
WORTHINGTON    CLOUDY    63  63 100 E7        30.04S
FAIRMONT       CLOUDY    61  57  88 SE5       30.04F
$$

...SOUTHWEST WISCONSIN...


CITY           SKY/WX    TMP DP  RH WIND       PRES   REMARKS
LA CROSSE      PTCLDY    60  58  92 SE3       30.11S
PRAIRIE DU CHI PTCLDY    59  58  96 E3        30.10S
BOSCOBEL       FOG       61  59  93 VRB3      30.12S VSB 1/2
LONE ROCK      FOG       61  57  87 CALM      30.13S VSB 1
PLATTEVILLE    PTCLDY    62  61  96 CALM      30.13R
FORT MC COY    CLEAR     52  51  94 CALM      30.13S
CAMP DOUGLAS   CLEAR     50  50 100 CALM      30.13S FOG
VIROQUA        FAIR      57  57 100 E5        30.13R
WIS DELLS      CLEAR     59  57  94 CALM      30.13F FOG
$$

...ELSEWHERE IN WISCONSIN...


CITY           SKY/WX    TMP DP  RH WIND       PRES   REMARKS
MILWAUKEE      PTCLDY    62  55  77 E8        30.14S
MADISON        PTCLDY    57  55  93 CALM      30.14S FOG
GREEN BAY      CLOUDY    59  58  96 CALM      30.16S
EAU CLAIRE     CLEAR     53  50  89 NE5       30.11F
BLACK RVR FLS  FAIR      53  53 100 CALM      30.12F
MEDFORD        CLEAR     46  46  97 E5        30.16R
WAUSAU         CLEAR     52  49  89 CALM      30.15S
WIS RAPIDS     CLEAR     54  51  90 NE3       30.15S
MARSHFIELD     CLEAR     52  49  89 NE7       30.14S
RICE LAKE      CLEAR     53  48  84 SE3       30.15R
$$

...NORTHEAST IOWA...


CITY           SKY/WX    TMP DP  RH WIND       PRES   REMARKS
WATERLOO       MOCLDY    64  61  90 E6        30.06F
DUBUQUE        MOCLDY    63  61  93 SE6       30.12R
DECORAH        PTCLDY    61  59  94 E6        30.09S
MASON CITY     CLOUDY    63  60  90 SE7       30.08F
CHARLES CITY   MOCLDY    63  59  88 E7        30.08F
OELWEIN        MOCLDY    64  61  88 E7        30.09S
$$

...ELSEWHERE IN IOWA...


CITY           SKY/WX    TMP DP  RH WIND       PRES   REMARKS
DES MOINES     LGT RAIN  69  65  86 CALM      30.04S
IOWA CITY      MOCLDY    67  63  87 E8        30.07S
FORT DODGE     CLOUDY    64  63  94 SE6       30.05S
MARSHALLTOWN   CLOUDY    65  62  90 E7        30.05S
CEDAR RAPIDS   MOCLDY    65  64  97 E7        30.06S
$$

...NORTHERN ILLINOIS...


CITY           SKY/WX    TMP DP  RH WIND       PRES   REMARKS
CHICAGO-OHARE  MOCLDY    68  56  65 E8        30.13R
DUPAGE         MOCLDY    65  59  81 E5        30.12S
CHICAGO-MIDWAY PTCLDY    69  59  70 E9        30.12S
MOLINE         CLOUDY    66  62  87 E8        30.08S
ROCKFORD       CLOUDY    64  60  87 E6        30.14R
STERLING       MOCLDY    63  59  88 E3        30.12R
PEORIA         MOCLDY    69  60  73 E8        30.09R
$$

NOTE: "FAIR" INDICATES FEW OR NO CLOUDS BELOW 12,000 FEET WITH NO
SIGNIFICANT WEATHER AND/OR OBSTRUCTIONS TO VISIBILITY. WIND
SPEEDS ARE IN MILES-PER-HOUR.



USA.gov is the U.S. government's official web portal to all federal, state and local government web resources and services.